Miscellaneous Local Product
Issued by NWS Hastings, NE

Home | Current Version | Previous Version | Graphics & Text | Print | Product List | Glossary On
Versions: 1 2 3 4 5 6 7 8 9 10 11 12 13 14 15 16 17 18 19 20 21 22 23 24 25 26 27 28 29 30 31 32 33 34 35 36 37 38 39 40 41 42 43 44 45 46 47 48 49 50
000
AXUS43 KGID 271202
MISGRI

GID CWA HOURLY WEATHER ROUNDUP
NATIONAL WEATHER SERVICE HASTINGS NE
700 AM CDT MON JUL 27 2015

NOTE: "FAIR" INDICATES FEW OR NO CLOUDS BELOW 12,000 FEET WITH NO
SIGNIFICANT WEATHER AND/OR OBSTRUCTIONS TO VISIBILITY.

...SOUTH CENTRAL NEBRASKA...

CITY           SKY/WX    TMP DP  RH WIND       PRES   REMARKS
GRAND ISLAND   CLOUDY    71  67  87 CALM      29.90R
HASTINGS       CLOUDY    72  65  78 SE5       29.90R
KEARNEY        CLOUDY    72  63  73 S7        29.89R
ORD            CLOUDY    71  66  84 CALM      29.88S
YORK           CLOUDY    72  68  88 CALM      29.88F
AURORA         CLOUDY    71  70  95 SW7       29.89R
LEXINGTON      CLOUDY    70  65  85 SW6       29.88S
HOLDREGE       CLOUDY    69  64  85 S7        29.88R
HEBRON         CLOUDY    74  65  74 CALM      29.89R

...NEBRASKA PANHANDLE...

CITY           SKY/WX    TMP DP  RH WIND       PRES   REMARKS
CHADRON        CLEAR     67  59  75 E6        29.84F
ALLIANCE       CLEAR     56  54  93 CALM      29.90R
SCOTTSBLUFF    CLEAR     60  58  92 SE10      29.91R
SIDNEY         CLEAR     60  59  96 S8        29.93F

...WESTERN AND NORTH CENTRAL NEBRASKA...

CITY           SKY/WX    TMP DP  RH WIND       PRES   REMARKS
VALENTINE      PTCLDY    62  60  93 E7        29.88F
AINSWORTH      PTCLDY    64  63  97 NE6       29.91R
ONEILL         CLOUDY    68  67  94 CALM      29.90S
BROKEN BOW     CLOUDY    68  64  87 E8        29.90R
IMPERIAL       PTCLDY    61  60  97 SE6       29.89S
NORTH PLATTE   PTCLDY    63  61  93 CALM      29.89S
MCCOOK         PTCLDY    66  64  93 E3        29.88S

...EASTERN NEBRASKA...

CITY           SKY/WX    TMP DP  RH WIND       PRES   REMARKS
NORFOLK        MOCLDY    78  76  93 NE10      29.87R FOG
SO SIOUX CITY  LGT RAIN  72  68  87 SE12      29.88F
TEKAMAH        MOCLDY    77  76  96 SE3       29.87R
COLUMBUS       CLOUDY    73  70  88 CALM      29.87F
ALBION         CLOUDY    74  71  88 N6        29.88F FOG
OMAHA EPPLEY   CLOUDY    79  76  90 SE12      29.86S
OFFUTT AFB     CLOUDY    78  76  94 S8        29.88R
MILLARD        CLOUDY    78  76  92 SE5       29.87R
LINCOLN        CLOUDY    77  70  79 S3        29.88S
BEATRICE       CLOUDY    74  70  86 S7        29.90R
FALLS CITY     CLOUDY    76  74  93 S5        29.88R

...NORTHERN KANSAS...

CITY           SKY/WX    TMP DP  RH WIND       PRES   REMARKS
GOODLAND       MOCLDY    66  64  93 S16       29.92F
HILL CITY      CLOUDY    72  64  76 W7        29.87R
NORTON         SUNNY     68  64  88 CALM      29.87R
PHILLIPSBURG   PTCLDY    73  66  78 E7        29.85F
SMITH CENTER   PTCLDY    68  64  88 E9        29.87F
HAYS           CLOUDY    70  61  73 SE9       29.85F
RUSSELL        CLOUDY    70  68  93 SE10      29.85F
CONCORDIA      CLOUDY    72  67  84 NW7       29.88F
SALINA         CLOUDY    76  67  73 E5        29.85F
TOPEKA         MOCLDY    77  73  87 CALM      29.91R



USA.gov is the U.S. government's official web portal to all federal, state and local government web resources and services.